Flag for Canada Weather past 2 weeks in Whitby, Ontario, Canada

Now
63 °F

Passing clouds.


Feels Like: 63 °F
Forecast: 54 / 71 °F
Wind: 9 mph from Northwest

Location: Toronto Buttonville

Current Time: Aug 28, 2014 at 9:14:44 PM

Latest Report: Aug 28, 2014 at 8:00 PM


Visibility: 15 mi

Pressure: 30.12 "Hg

Humidity: 52%

Dew point: 45 °F

Location of WhitbyLocation

Historic Weather in Whitby — Graph

°F

Whitby temperature yesterday

Maximum temperature yesterday: 73 °F (at 1:00 PM)
Minimum temperature yesterday: 59 °F (at 11:00 PM)
Average temperature yesterday: 67 °F

Past Weeks' High & Low Weather Summary

 TemperatureHumidityPressure
High88 °F (Aug 26, 6:00 PM)100% (Aug 17, 6:00 AM)30.20 "Hg (Aug 17, 6:00 AM)
Low50 °F (Aug 19, 4:00 AM)38% (Aug 15, 5:00 PM)29.78 "Hg (Aug 16, 4:00 PM)
Average66 °F76%29.99 "Hg
* Reported Aug 13 8:00 PM — Aug 28 8:00 PM, Whitby, Weather by CustomWeather, © 2014

Note: Actual official high and low records may vary slightly from our data, if they occured in-between our weather recording intervals... More about our weather records

Advertising

Whitby weather history for previous 24 hours

 ConditionsComfort  
Time TempWeatherWind HumidityBarometerVisibility
8:00 PM
Aug 28
63 °FPassing clouds.9 mph52%30.12 "Hg15 mi
7:00 PM66 °FPassing clouds.12 mph46%30.10 "Hg15 mi
6:00 PM70 °FPassing clouds.13 mph43%30.10 "Hg15 mi
5:00 PM70 °FPassing clouds.10 mph38%30.09 "Hg15 mi
4:00 PM70 °FPassing clouds.14 mph38%30.09 "Hg15 mi
3:00 PM70 °FPassing clouds.13 mph43%30.10 "Hg15 mi
2:00 PM70 °FPassing clouds.12 mph50%30.10 "Hg15 mi
1:00 PM70 °FPassing clouds.15 mph46%30.11 "Hg15 mi
12:00 PM68 °FPassing clouds.9 mph49%30.11 "Hg15 mi
11:00 AM64 °FPassing clouds.13 mph56%30.12 "Hg15 mi
10:00 AM63 °FPassing clouds.9 mph59%30.12 "Hg15 mi
9:00 AM61 °FPassing clouds.8 mph68%30.11 "Hg15 mi
8:00 AM57 °FPassing clouds.8 mph82%30.10 "Hg15 mi
7:00 AM54 °FPassing clouds.5 mph88%30.09 "Hg15 mi
6:00 AM54 °FPassing clouds.5 mph88%30.07 "Hg15 mi
5:00 AM54 °FPassing clouds.2 mph88%30.05 "Hg15 mi
4:00 AM55 °FPassing clouds.5 mph82%30.06 "Hg15 mi
3:00 AM57 °FPassing clouds.6 mph77%30.06 "Hg15 mi
2:00 AM57 °FPassing clouds.7 mph77%30.06 "Hg15 mi
1:00 AM57 °FClear.8 mph82%30.06 "Hg15 mi
12:00 AM59 °FClear.7 mph77%30.07 "Hg15 mi
11:00 PM
Aug 27
59 °FClear.6 mph77%30.07 "Hg15 mi
10:00 PM61 °FPassing clouds.6 mph72%30.07 "Hg15 mi
9:00 PM63 °FPassing clouds.8 mph73%30.07 "Hg15 mi
Weather by CustomWeather, © 2014

See weather overviewHow to use our weather pages